DC1NF-7 Weather Reports


Display with metric or nautical units.
time (UTC)temp
F
wind
direction
speed
MPH
gust
MPH
rain 1hr
in
rain 24hr
in
rain mn
in
humidity
%
barometer
mb
20260903231033 67 236 1.0 2.0 0.00 0.00 0.00 70 1016.4
20260903230034 67 249 1.0 2.0 0.00 0.00 0.00 69 1016.6
20260903225029 66 219 1.0 4.0 0.00 0.00 0.00 71 1016.7
20260903224025 67 203 0.0 2.0 0.00 0.00 0.00 69 1016.6
20260903223019 67 254 1.0 2.0 0.00 0.00 0.00 68 1016.8
20260903222017 67 224 1.0 2.0 0.00 0.00 0.00 68 1016.6
20260903221112 66 0.0 0.0 0.00 0.00 0.00 71 1016.7
20260903220107 66 0.0 0.0 0.00 0.00 0.00 72 1016.7
20260903215103 66 0.0 0.0 0.00 0.00 0.00 71 1016.5
20260903214059 67 0.0 0.0 0.00 0.00 0.00 69 1016.6
20260903213056 66 0.0 0.0 0.00 0.00 0.00 70 1016.7
20260903212053 67 0.0 0.0 0.00 0.00 0.00 69 1016.6
20260903211051 68 0.0 0.0 0.00 0.00 0.00 68 1016.5
20260903210045 69 0.0 2.0 0.00 0.00 0.00 66 1016.5
20260903205041 69 232 2.0 4.0 0.00 0.00 0.00 65 1016.7
20260903204036 70 231 2.0 2.0 0.00 0.00 0.00 63 1016.7
20260903203034 71 221 1.0 2.0 0.00 0.00 0.00 61 1016.7
20260903202032 71 231 2.0 4.0 0.00 0.00 0.00 60 1016.7
20260903201029 71 250 1.0 4.0 0.00 0.00 0.00 60 1016.6
20260903200024 71 223 2.0 4.0 0.00 0.00 0.00 60 1016.4
20260903195021 71 258 3.0 6.0 0.00 0.00 0.00 60 1016.2
20260903194018 71 229 4.0 8.0 0.00 0.00 0.00 59 1016.2
20260903193115 70 215 2.0 4.0 0.00 0.00 0.00 63 1016.5
20260903192110 70 0.0 0.0 0.00 0.00 0.00 63 1016.4
20260903191107 70 206 1.0 4.0 0.00 0.00 0.00 62 1016.4
20260903185101 71 208 1.0 2.0 0.00 0.00 0.00 60 1016.4
20260903184056 71 0.0 0.0 0.00 0.00 0.00 60 1016.3
20260903183053 71 0.0 0.0 0.00 0.00 0.00 60 1016.2
20260903182048 71 0.0 0.0 0.00 0.00 0.00 59 1016.0
20260903181045 72 0.0 0.0 0.00 0.00 0.00 58 1016.1
20260903180039 72 187 0.0 2.0 0.00 0.00 0.00 58 1016.0
20260903175035 72 206 1.0 2.0 0.00 0.00 0.00 57 1015.9
20260903174031 73 244 2.0 4.0 0.00 0.00 0.00 55 1016.1
20260903173027 73 234 3.0 6.0 0.00 0.00 0.00 54 1016.0
20260903172026 73 222 5.0 11.0 0.00 0.00 0.00 53 1016.0
20260903171021 74 244 5.0 9.0 0.00 0.00 0.00 53 1016.0
20260903170017 74 243 8.0 15.0 0.00 0.00 0.00 52 1016.0
20260903165114 74 221 5.0 9.0 0.00 0.00 0.00 50 1015.9
20260903164109 74 224 4.0 7.0 0.00 0.00 0.00 52 1015.9
20260903163106 75 220 3.0 6.0 0.00 0.00 0.00 52 1015.7
20260903162102 75 210 3.0 6.0 0.00 0.00 0.00 51 1015.9
20260903161101 75 239 5.0 8.0 0.00 0.00 0.00 51 1015.9
20260903160056 75 235 4.0 8.0 0.00 0.00 0.00 51 1016.0
20260903155054 74 242 3.0 6.0 0.00 0.00 0.00 52 1016.0
20260903154050 74 207 5.0 9.0 0.00 0.00 0.00 52 1015.9
20260903153047 74 209 4.0 9.0 0.00 0.00 0.00 52 1016.1
20260903152042 75 208 4.0 11.0 0.00 0.00 0.00 51 1016.1
20260903151039 74 219 2.0 4.0 0.00 0.00 0.00 55 1016.2
20260903150034 74 205 3.0 7.0 0.00 0.00 0.00 54 1016.2
20260903145031 74 209 3.0 6.0 0.00 0.00 0.00 54 1016.3
20260903144027 73 268 4.0 11.0 0.00 0.00 0.00 54 1016.3
20260903143024 72 245 5.0 8.0 0.00 0.00 0.00 55 1016.4
20260903142019 72 225 5.0 14.0 0.00 0.00 0.00 59 1016.3
20260903141115 71 186 0.0 2.0 0.00 0.00 0.00 63 1016.3
20260903140113 71 225 0.0 2.0 0.00 0.00 0.00 62 1016.7
20260903135108 71 213 1.0 2.0 0.00 0.00 0.00 64 1016.7
20260903134102 70 78 2.0 11.0 0.00 0.00 0.00 65 1017.0
20260903133100 70 221 2.0 4.0 0.00 0.00 0.00 63 1017.1
20260903132056 73 249 6.0 13.0 0.00 0.00 0.00 56 1017.2
20260903131056 74 241 6.0 11.0 0.00 0.00 0.00 49 1017.0
20260903130050 74 256 6.0 11.0 0.00 0.00 0.00 49 1016.9
20260903125044 74 237 6.0 11.0 0.00 0.00 0.00 49 1017.1
20260903124040 74 241 5.0 11.0 0.00 0.00 0.00 49 1017.0
20260903123038 74 249 5.0 13.0 0.00 0.00 0.00 50 1016.9
20260903122034 74 208 7.0 16.0 0.00 0.00 0.00 50 1016.8
20260903121032 74 199 6.0 13.0 0.00 0.00 0.00 49 1017.0
20260903120029 74 243 6.0 11.0 0.00 0.00 0.00 49 1017.0
20260903115026 75 214 6.0 13.0 0.00 0.00 0.00 48 1017.1
20260903114021 74 287 5.0 9.0 0.00 0.00 0.00 48 1017.1
20260903113019 75 197 5.0 13.0 0.00 0.00 0.00 49 1017.2
20260903112116 73 251 5.0 11.0 0.00 0.00 0.00 50 1017.5
20260903111110 73 197 7.0 14.0 0.00 0.00 0.00 50 1017.5
20260903110105 74 192 5.0 9.0 0.00 0.00 0.00 49 1017.5
20260903105102 73 246 6.0 11.0 0.00 0.00 0.00 49 1017.7
20260903104059 72 227 4.0 9.0 0.00 0.00 0.00 50 1017.8
20260903103055 72 273 5.0 11.0 0.00 0.00 0.00 51 1018.0
20260903102051 72 215 5.0 15.0 0.00 0.00 0.00 51 1018.0
20260903101046 70 228 2.0 4.0 0.00 0.00 0.00 55 1018.1
20260903100042 69 223 2.0 6.0 0.00 0.00 0.00 57 1018.3
20260903095038 69 232 3.0 8.0 0.00 0.00 0.00 55 1018.3
20260903094034 70 258 5.0 9.0 0.00 0.00 0.00 54 1018.3
20260903093032 70 208 4.0 8.0 0.00 0.00 0.00 55 1018.2
20260903092027 69 229 6.0 13.0 0.00 0.00 0.00 55 1018.0
20260903091025 69 230 7.0 11.0 0.00 0.00 0.00 55 1018.0
20260903090020 69 230 5.0 11.0 0.00 0.00 0.00 56 1018.1
20260903085015 69 238 5.0 11.0 0.00 0.00 0.00 57 1018.1
20260903084113 69 257 5.0 11.0 0.00 0.00 0.00 57 1018.2
20260903083110 69 247 4.0 9.0 0.00 0.00 0.00 58 1018.2
20260903082107 68 238 5.0 11.0 0.00 0.00 0.00 60 1018.3
20260903081102 67 195 4.0 7.0 0.00 0.00 0.00 63 1018.0
20260903080059 66 175 4.0 7.0 0.00 0.00 0.00 67 1017.8
20260903075057 66 194 4.0 7.0 0.00 0.00 0.00 69 1017.7
20260903074054 65 173 4.0 7.0 0.00 0.00 0.00 70 1017.8
20260903073048 64 192 2.0 4.0 0.00 0.00 0.00 73 1018.1
20260903072044 62 174 1.0 2.0 0.00 0.00 0.00 77 1018.2
20260903071040 60 183 1.0 2.0 0.00 0.00 0.00 80 1018.3
20260903070037 59 180 0.0 2.0 0.00 0.00 0.00 83 1018.4
20260903065035 58 177 3.0 4.0 0.00 0.00 0.00 85 1018.3
20260903064031 57 187 1.0 4.0 0.00 0.00 0.00 85 1018.2
20260903063026 56 180 1.0 2.0 0.00 0.00 0.00 84 1018.3
20260903062023 56 173 0.0 2.0 0.00 0.00 0.00 85 1018.2
20260903061019 55 0.0 0.0 0.00 0.00 0.00 86 1018.3
20260903060115 54 233 0.0 2.0 0.00 0.00 0.00 87 1018.5
20260903055110 55 0.0 0.0 0.00 0.00 0.00 87 1018.5
20260903054105 54 0.0 0.0 0.00 0.00 0.00 88 1018.2
20260903053102 52 0.0 0.0 0.00 0.00 0.00 91 1018.1
20260903052059 52 0.0 0.0 0.00 0.00 0.00 91 1017.9
20260903051057 53 0.0 0.0 0.00 0.00 0.00 92 1017.9
20260903050051 52 0.0 0.0 0.00 0.00 0.00 92 1017.8
20260903045047 52 0.0 0.0 0.00 0.00 0.00 92 1017.7
20260903044045 52 0.0 0.0 0.00 0.00 0.00 92 1017.6
20260903043040 53 225 0.0 2.0 0.00 0.00 0.00 91 1017.7
20260903042038 53 225 0.0 2.0 0.00 0.00 0.00 91 1017.8
20260903041034 53 234 1.0 2.0 0.00 0.00 0.00 91 1017.7
20260903040030 53 239 1.0 2.0 0.00 0.00 0.00 91 1017.8
20260903035027 53 0.0 0.0 0.00 0.00 0.00 90 1017.8
20260903034026 54 225 0.0 2.0 0.00 0.00 0.00 89 1017.9
20260903033020 54 0.0 0.0 0.00 0.00 0.00 89 1017.9
20260903032016 54 230 1.0 2.0 0.00 0.00 0.00 89 1017.9
20260903031112 54 225 1.0 2.0 0.00 0.00 0.00 89 1017.8
20260903030108 54 0.0 0.0 0.00 0.00 0.00 89 1017.9
20260903025105 54 0.0 0.0 0.00 0.00 0.00 89 1018.0
20260903024102 55 0.0 0.0 0.00 0.00 0.00 89 1017.9
20260903023100 55 0.0 0.0 0.00 0.00 0.00 89 1018.0
20260903022054 55 0.0 0.0 0.00 0.00 0.00 89 1017.9
20260903021051 56 214 0.0 2.0 0.00 0.00 0.00 88 1017.9
20260903020047 56 0.0 0.0 0.00 0.00 0.00 88 1017.8
20260903015041 56 225 0.0 2.0 0.00 0.00 0.00 87 1017.8
20260903014037 56 0.0 0.0 0.00 0.00 0.00 87 1017.7
20260903013034 57 0.0 2.0 0.00 0.00 0.00 87 1017.9
20260903012033 57 0.0 0.0 0.00 0.00 0.00 87 1017.9
20260903011028 57 239 1.0 2.0 0.00 0.00 0.00 87 1017.9
20260903010025 57 239 1.0 4.0 0.00 0.00 0.00 87 1017.9
20260903005019 58 0.0 2.0 0.00 0.00 0.00 86 1017.8
20260903004017 58 0.0 0.0 0.00 0.00 0.00 85 1017.6
20260903003112 59 0.0 0.0 0.00 0.00 0.00 85 1017.7
20260903002109 59 0.0 2.0 0.00 0.00 0.00 84 1017.7
20260903001106 59 0.0 0.0 0.00 0.00 0.00 84 1017.7
20260902235101 60 0.0 0.0 0.00 0.00 0.00 83 1017.6
20260902234058 61 0.0 0.0 0.00 0.00 0.00 82 1017.7
20260902233054 61 0.0 0.0 0.00 0.00 0.00 81 1017.7
20260902232048 61 0.0 0.0 0.00 0.00 0.00 81 1017.7
20260902231044 62 0.0 0.0 0.00 0.00 0.00 79 1017.8